| time (UTC) | temp C | wind direction | speed KPH | gust KPH | rain 1hr cm | rain 24hr cm | rain mn cm | humidity % | barometer mb |
| 20260905214544 | 17 | 0 | 0.0 | 0.0 | 0.00 | 0.05 | 0.05 | 92 | 1012.1 |
| 20260905213050 | 18 | 0 | 0.0 | 0.0 | 0.00 | 0.05 | 0.05 | 92 | 1011.9 |
| 20260905211551 | 17 | 0 | 0.0 | 1.6 | 0.00 | 0.05 | 0.05 | 94 | 1011.7 |
| 20260905210048 | 17 | 0 | 0.0 | 1.6 | 0.03 | 0.05 | 0.05 | 95 | 1011.7 |
| 20260905204546 | 17 | 0 | 0.0 | 0.0 | 0.05 | 0.05 | 0.05 | 94 | 1011.8 |
| 20260905203047 | 17 | 0 | 0.0 | 1.6 | 0.05 | 0.05 | 0.05 | 93 | 1011.6 |
| 20260905201546 | 17 | 0 | 0.0 | 3.2 | 0.05 | 0.05 | 0.05 | 93 | 1011.6 |
| 20260905200047 | 17 | 0 | 0.0 | 6.4 | 0.03 | 0.03 | 0.03 | 91 | 1011.5 |
| 20260905194545 | 18 | 0 | 0.0 | 4.8 | 0.00 | 0.00 | 0.00 | 85 | 1011.6 |
| 20260905193049 | 21 | 0 | 1.6 | 4.8 | 0.00 | 0.00 | 0.00 | 76 | 1011.2 |
| 20260905191550 | 22 | 0 | 0.0 | 3.2 | 0.00 | 0.00 | 0.00 | 77 | 1010.9 |
| 20260905190045 | 22 | 0 | 0.0 | 1.6 | 0.00 | 0.00 | 0.00 | 74 | 1010.9 |
| 20260905184611 | 23 | 0 | 0.0 | 4.8 | 0.00 | 0.00 | 0.00 | 74 | 1010.8 |
| 20260905183051 | 23 | 0 | 0.0 | 3.2 | 0.00 | 0.00 | 0.00 | 68 | 1010.8 |
| 20260905181555 | 23 | 0 | 0.0 | 4.8 | 0.00 | 0.00 | 0.00 | 70 | 1010.8 |
| 20260905180051 | 22 | 203 | 0.0 | 3.2 | 0.00 | 0.00 | 0.00 | 72 | 1010.9 |
| 20260905174547 | 22 | 0 | 0.0 | 3.2 | 0.00 | 0.00 | 0.00 | 74 | 1010.9 |
| 20260905173044 | 22 | 210 | 0.0 | 3.2 | 0.00 | 0.00 | 0.00 | 71 | 1010.7 |
| 20260905171544 | 22 | 221 | 1.6 | 6.4 | 0.00 | 0.00 | 0.00 | 73 | 1010.7 |
| 20260905170046 | 22 | 0 | 0.0 | 3.2 | 0.00 | 0.00 | 0.00 | 71 | 1010.7 |
| 20260905164546 | 22 | 181 | 0.0 | 3.2 | 0.00 | 0.00 | 0.00 | 72 | 1010.6 |
| 20260905163045 | 22 | 0 | 0.0 | 4.8 | 0.00 | 0.00 | 0.00 | 73 | 1010.7 |
| 20260905161548 | 22 | 0 | 0.0 | 3.2 | 0.00 | 0.00 | 0.00 | 73 | 1010.8 |
| 20260905160049 | 21 | 195 | 0.0 | 3.2 | 0.00 | 0.00 | 0.00 | 77 | 1010.8 |
| 20260905154607 | 20 | 0 | 0.0 | 1.6 | 0.00 | 0.00 | 0.00 | 79 | 1011.0 |
| 20260905153044 | 21 | 0 | 0.0 | 0.0 | 0.00 | 0.00 | 0.00 | 79 | 1011.0 |
| 20260905151550 | 20 | 0 | 0.0 | 3.2 | 0.00 | 0.00 | 0.00 | 80 | 1010.9 |
| 20260905150045 | 19 | 0 | 0.0 | 0.0 | 0.00 | 0.00 | 0.00 | 83 | 1010.9 |
| 20260905144546 | 19 | 0 | 0.0 | 0.0 | 0.00 | 0.00 | 0.00 | 81 | 1010.9 |
| 20260905143044 | 20 | 0 | 0.0 | 0.0 | 0.00 | 0.00 | 0.00 | 80 | 1010.8 |
| 20260905141547 | 20 | 0 | 0.0 | 0.0 | 0.00 | 0.00 | 0.00 | 82 | 1010.9 |
| 20260905140047 | 19 | 0 | 0.0 | 0.0 | 0.00 | 0.00 | 0.00 | 84 | 1010.8 |
| 20260905134543 | 19 | 0 | 0.0 | 1.6 | 0.00 | 0.00 | 0.00 | 85 | 1010.7 |
| 20260905133049 | 18 | 0 | 0.0 | 1.6 | 0.00 | 0.00 | 0.00 | 86 | 1010.6 |
| 20260905131545 | -17 | 0 | 0.0 | 0.0 | 0.00 | 0.00 | 0.00 | 1010.3 | |
| 20260905130048 | -17 | 0.0 | 0.0 | 0.00 | 0.00 | 0.00 | 1010.4 | ||
| 20260905124547 | -17 | 0.0 | 0.0 | 0.00 | 0.00 | 0.00 | 1010.3 | ||
| 20260905123049 | -17 | 0.0 | 0.0 | 0.00 | 0.00 | 0.00 | 1010.1 | ||
| 20260905121545 | -17 | 0.0 | 0.0 | 0.00 | 0.00 | 0.00 | 1010.0 | ||
| 20260905120049 | -17 | 0.0 | 0.0 | 0.00 | 0.00 | 0.00 | 1009.8 | ||
| 20260905114547 | -17 | 0.0 | 0.0 | 0.00 | 0.00 | 0.00 | 1009.7 | ||
| 20260905113050 | -17 | 0.0 | 0.0 | 0.00 | 0.00 | 0.00 | 1009.5 | ||
| 20260905111616 | -17 | 0.0 | 0.0 | 0.00 | 0.00 | 0.00 | 1009.6 | ||
| 20260905110046 | -17 | 0.0 | 0.0 | 0.00 | 0.00 | 0.00 | 1009.5 | ||
| 20260905104544 | -17 | 0.0 | 0.0 | 0.00 | 0.00 | 0.00 | 1009.4 | ||
| 20260905103046 | -17 | 0.0 | 0.0 | 0.00 | 0.00 | 0.00 | 1009.3 | ||
| 20260905101553 | -17 | 0.0 | 0.0 | 0.00 | 0.00 | 0.00 | 1009.2 | ||
| 20260905100050 | -17 | 0.0 | 0.0 | 0.00 | 0.00 | 0.00 | 1009.2 | ||
| 20260905094546 | -17 | 0.0 | 0.0 | 0.00 | 0.00 | 0.00 | 1008.9 | ||
| 20260905093044 | -17 | 0.0 | 0.0 | 0.00 | 0.00 | 0.00 | 1008.8 | ||
| 20260905091547 | -17 | 0.0 | 1.6 | 0.00 | 0.00 | 0.00 | 1008.9 | ||
| 20260905090045 | 16 | 0 | 0.0 | 1.6 | 0.00 | 0.00 | 0.00 | 91 | 1008.7 |
| 20260905084550 | 16 | 0 | 0.0 | 0.0 | 0.00 | 0.00 | 0.00 | 90 | 1008.6 |
| 20260905083048 | 16 | 0 | 0.0 | 1.6 | 0.00 | 0.00 | 0.00 | 89 | 1008.6 |
| 20260905081546 | 17 | 0 | 0.0 | 1.6 | 0.00 | 0.00 | 0.00 | 89 | 1008.7 |
| 20260905080055 | 17 | 0 | 0.0 | 1.6 | 0.00 | 0.00 | 0.00 | 88 | 1008.5 |
| 20260905074547 | 17 | 207 | 0.0 | 3.2 | 0.00 | 0.03 | 0.00 | 87 | 1008.6 |
| 20260905073053 | 17 | 0 | 0.0 | 1.6 | 0.00 | 0.03 | 0.00 | 87 | 1008.6 |
| 20260905071546 | 17 | 0 | 1.6 | 3.2 | 0.00 | 0.03 | 0.00 | 88 | 1008.7 |
| 20260905070045 | 17 | 0 | 0.0 | 3.2 | 0.00 | 0.03 | 0.00 | 88 | 1008.8 |
| 20260905064543 | 16 | 181 | 0.0 | 0.0 | 0.00 | 0.03 | 0.00 | 89 | 1009.1 |
| 20260905063047 | 17 | 0 | 0.0 | 0.0 | 0.00 | 0.03 | 0.00 | 88 | 1009.2 |
| 20260905061546 | 17 | 181 | 0.0 | 1.6 | 0.00 | 0.03 | 0.00 | 87 | 1009.2 |
| 20260905060045 | 17 | 188 | 0.0 | 0.0 | 0.00 | 0.03 | 0.00 | 86 | 1009.3 |
| 20260905054543 | 17 | 0 | 0.0 | 3.2 | 0.00 | 0.03 | 0.00 | 86 | 1009.4 |
| 20260905053047 | 17 | 185 | 0.0 | 1.6 | 0.00 | 0.03 | 0.00 | 86 | 1009.3 |
| 20260905051550 | 17 | 0 | 0.0 | 1.6 | 0.00 | 0.03 | 0.00 | 86 | 1009.4 |
| 20260905050045 | 17 | 173 | 0.0 | 1.6 | 0.00 | 0.03 | 0.00 | 86 | 1009.4 |
| 20260905044545 | 17 | 0 | 0.0 | 0.0 | 0.00 | 0.03 | 0.00 | 85 | 1009.2 |
| 20260905043055 | 18 | 0 | 0.0 | 1.6 | 0.00 | 0.03 | 0.00 | 84 | 1009.1 |
| 20260905041545 | 18 | 174 | 0.0 | 1.6 | 0.00 | 0.03 | 0.00 | 83 | 1009.5 |
| 20260905040046 | 18 | 0 | 0.0 | 0.0 | 0.00 | 0.03 | 0.00 | 82 | 1009.3 |
| 20260905034554 | 18 | 0 | 0.0 | 0.0 | 0.00 | 0.03 | 0.03 | 82 | 1009.3 |
| 20260905033110 | 18 | 0 | 0.0 | 0.0 | 0.00 | 0.03 | 0.03 | 81 | 1009.5 |
| 20260905031554 | 19 | 0 | 0.0 | 0.0 | 0.00 | 0.03 | 0.03 | 79 | 1009.6 |
| 20260905030055 | 19 | 0 | 0.0 | 0.0 | 0.00 | 0.03 | 0.03 | 79 | 1009.6 |
| 20260905024547 | 20 | 0 | 0.0 | 0.0 | 0.00 | 0.03 | 0.03 | 78 | 1009.7 |
| 20260905023055 | 19 | 0 | 0.0 | 1.6 | 0.00 | 0.03 | 0.03 | 78 | 1009.7 |
| 20260905021547 | 19 | 0 | 0.0 | 0.0 | 0.00 | 0.03 | 0.03 | 79 | 1009.8 |
| 20260905020043 | 18 | 0 | 0.0 | 0.0 | 0.00 | 0.03 | 0.03 | 81 | 1010.0 |
| 20260905014546 | 19 | 0 | 0.0 | 0.0 | 0.00 | 0.03 | 0.03 | 79 | 1010.0 |
| 20260905013046 | 19 | 0 | 0.0 | 0.0 | 0.00 | 0.03 | 0.03 | 77 | 1010.1 |
| 20260905011547 | 19 | 0 | 0.0 | 0.0 | 0.00 | 0.03 | 0.03 | 77 | 1010.2 |
| 20260905010049 | 19 | 0 | 0.0 | 0.0 | 0.00 | 0.03 | 0.03 | 76 | 1010.1 |
| 20260905004550 | 20 | 0 | 0.0 | 0.0 | 0.00 | 0.03 | 0.03 | 74 | 1009.9 |
| 20260905003044 | 20 | 0 | 0.0 | 1.6 | 0.00 | 0.03 | 0.03 | 72 | 1010.0 |
| 20260905001554 | 21 | 0 | 0.0 | 1.6 | 0.00 | 0.03 | 0.03 | 71 | 1009.9 |
| 20260905000055 | 21 | 0 | 0.0 | 1.6 | 0.00 | 0.03 | 0.03 | 70 | 1009.7 |
| 20260904234547 | 21 | 0 | 0.0 | 1.6 | 0.00 | 0.03 | 0.03 | 70 | 1009.7 |
| 20260904233047 | 21 | 200 | 0.0 | 1.6 | 0.00 | 0.03 | 0.03 | 70 | 1009.4 |
| 20260904231544 | 21 | 0 | 0.0 | 0.0 | 0.00 | 0.03 | 0.03 | 72 | 1009.3 |
| 20260904230106 | 22 | 0 | 0.0 | 0.0 | 0.00 | 0.03 | 0.03 | 71 | 1009.3 |
| 20260904224545 | 22 | 0 | 0.0 | 0.0 | 0.00 | 0.03 | 0.03 | 72 | 1009.2 |
| 20260904223050 | 23 | 0 | 0.0 | 0.0 | 0.00 | 0.03 | 0.03 | 68 | 1009.1 |
| 20260904221547 | 23 | 194 | 0.0 | 1.6 | 0.00 | 0.03 | 0.03 | 64 | 1009.0 |
| 20260904220051 | 24 | 0 | 0.0 | 1.6 | 0.00 | 0.03 | 0.03 | 63 | 1009.1 |